Weather History for Jaffrey, NH

Change the Weather History Date:

Monday, July 8, 2013

  Actual Average Record
Temperature  
Mean Temperature 75 °F -  
Max Temperature 86 °F 75 °F 88 °F (2010)
Min Temperature 66 °F 54 °F 46 °F (2000)
Cooling Degree Days 10    
Growing Degree Days 25 (Base 50)    
Moisture  
Dew Point 67 °F    
Average Humidity 80    
Maximum Humidity 100    
Minimum Humidity 49    
Precipitation  
Precipitation 0.11 in - - ()
Sea Level Pressure  
Sea Level Pressure 30.02 in    
Wind  
Wind Speed 2 mph (WSW)    
Max Wind Speed 10 mph    
Max Gust Speed -    
Visibility 9 miles    
Events Rain , Thunderstorm    
Averages and records for this station are not official NWS values.
T = Trace of Precipitation, MM = Missing Value Source: NWS Daily Summary

Daily Weather History Graph

Daily Weather History Graph

Search for Another Location

Airport:

Trip Planner

Search our weather history database for the weather conditions in past years. The results will help you decide how hot, cold, wet, or windy it might be!

Date:

Astronomy

Jul. 08, 2013 Rise Set
Actual Time 5:17 AM EDT 8:28 PM EDT
Civil Twilight 4:43 AM EDT 9:02 PM EDT
Nautical Twilight 3:58 AM EDT 9:46 PM EDT
Astronomical Twilight 3:05 AM EDT 10:40 PM EDT
Moon 5:46 AM EDT (7/8) 8:25 PM EDT (7/8)
Length of Visible Light 16h 19m
Length of Day
15h 10m
New Moon, 0% of the Moon is Illuminated
Jul 8
New Moon
Jul 15
First Quarter
Jul 22
Full
Jul 29
Last Quarter
Aug 6
New

Hourly Weather History & Observations

Time (EDT) Temp. Heat Index Dew Point Humidity Pressure Visibility Wind Dir Wind Speed Gust Speed Precip Events Conditions
12:52 AM 70.0 °F - 68.0 °F 93% 29.97 in 10.0 mi Calm Calm - N/A   Clear
1:52 AM 71.1 °F - 68.0 °F 90% 29.96 in 10.0 mi South 3.5 mph - N/A   Clear
2:52 AM 71.1 °F - 68.0 °F 90% 29.96 in 10.0 mi Calm Calm - N/A   Partly Cloudy
3:52 AM 72.0 °F - 68.0 °F 87% 29.96 in 10.0 mi Calm Calm - N/A   Clear
4:52 AM 70.0 °F - 68.0 °F 93% 29.96 in 10.0 mi Calm Calm - N/A   Clear
5:52 AM 71.1 °F - 69.1 °F 93% 29.97 in 10.0 mi Calm Calm - N/A   Clear
6:52 AM 72.0 °F - 69.1 °F 91% 29.98 in 10.0 mi Calm Calm - N/A   Clear
7:52 AM 75.0 °F - 70.0 °F 84% 29.99 in 10.0 mi Calm Calm - N/A   Mostly Cloudy
8:52 AM 78.1 °F - 69.1 °F 74% 29.99 in 10.0 mi West 4.6 mph - N/A   Partly Cloudy
9:52 AM 79.0 °F - 68.0 °F 69% 30.00 in 10.0 mi WSW 6.9 mph - N/A   Mostly Cloudy
10:52 AM 81.0 °F 83.0 °F 66.0 °F 60% 30.00 in 10.0 mi WNW 4.6 mph - N/A   Mostly Cloudy
11:52 AM 82.0 °F 83.4 °F 64.0 °F 54% 30.01 in 10.0 mi Calm Calm - N/A   Mostly Cloudy
12:52 PM 84.0 °F 85.8 °F 64.9 °F 53% 30.01 in 10.0 mi Variable 5.8 mph - N/A   Scattered Clouds
1:52 PM 84.9 °F 86.1 °F 64.0 °F 49% 30.00 in 10.0 mi West 6.9 mph - N/A   Partly Cloudy
2:52 PM 84.9 °F 86.6 °F 64.9 °F 51% 29.99 in 10.0 mi WNW 8.1 mph - N/A   Partly Cloudy
3:52 PM 84.9 °F 86.6 °F 64.9 °F 51% 30.00 in 10.0 mi WSW 6.9 mph - N/A   Scattered Clouds
4:52 PM 82.9 °F 85.0 °F 66.0 °F 56% 30.00 in 10.0 mi WSW 10.4 mph - N/A   Scattered Clouds
5:52 PM 80.1 °F 81.9 °F 64.9 °F 60% 30.00 in 10.0 mi West 3.5 mph - N/A   Clear
6:52 PM 78.1 °F - 68.0 °F 71% 30.01 in 10.0 mi Variable 5.8 mph - N/A   Mostly Cloudy
7:52 PM 73.0 °F - 68.0 °F 84% 30.04 in 10.0 mi Calm Calm - N/A   Mostly Cloudy
8:13 PM 73.4 °F - 66.2 °F 78% 30.05 in 10.0 mi Variable 3.5 mph - N/A   Overcast
8:21 PM 71.6 °F - 66.2 °F 83% 30.05 in 10.0 mi Calm Calm - N/A Thunderstorm Thunderstorm
8:39 PM 71.6 °F - 68.0 °F 88% 30.06 in 10.0 mi Variable 3.5 mph - N/A Thunderstorm Overcast
8:49 PM 69.8 °F - 66.2 °F 88% 30.07 in 9.0 mi East 4.6 mph - 0.00 in Rain Light Rain
8:52 PM 70.0 °F - 68.0 °F 93% 30.07 in 8.0 mi Calm Calm - 0.00 in Rain Light Rain
9:20 PM 69.8 °F - 66.2 °F 88% 30.08 in 4.0 mi Calm Calm - 0.06 in Rain Rain
9:22 PM 69.8 °F - 66.2 °F 88% 30.08 in 4.0 mi Calm Calm - 0.07 in Rain Rain
9:30 PM 69.8 °F - 68.0 °F 94% 30.08 in 4.0 mi Variable 4.6 mph - 0.08 in Rain Light Rain
9:52 PM 69.1 °F - 66.9 °F 93% 30.08 in 5.0 mi Calm Calm - 0.10 in Rain Light Rain
10:13 PM 68.0 °F - 66.2 °F 94% 30.08 in 6.0 mi Calm Calm - 0.01 in Rain Light Rain
10:52 PM 66.9 °F - 66.0 °F 97% 30.09 in 5.0 mi Variable 3.5 mph - 0.01 in   Overcast
11:01 PM 66.2 °F - 66.2 °F 100% 30.09 in 4.0 mi Calm Calm - N/A   Overcast
11:52 PM 66.9 °F - 66.0 °F 97% 30.10 in 4.0 mi Calm Calm - N/A   Overcast